Вернуться в каталог

STARLINK-3959

АктивенСвязьVLEO
NORAD 52564·PAYLOAD·🇺🇸 United States

Запущен May 13, 2022 с Vandenberg Space Force Base

Loading…

Ближайшие Пролёты (ближайшие 24 часа)

TLE

СвежийSource: CelesTrak SupGP

Эпоха: Sep 15, 2026, 01:34 UTC

1 52564C 22051AH  26258.06576389 -.00002227  00000+0 -71612-4 0  2582
2 52564  53.1612 359.7806 0001364  91.0051 263.5407 15.31698620    19

Отслеживайте STARLINK-3959 в реальном времени с AllMySat

Download on the App Store